User: anonymous
Location: Meriden
(44.0740°N, 93.3870°W)
Time: 23:23:27
(UTC-05:00)
Language:

Hamsat - Orbit

View from above orbital plane
View from above orbital plane
View from above satellite
View from above satellite

Ground track
Ground track

The orbit data is extracted from the following two-line orbital elements,

1 28650U 05017B   14244.46618514  .00001003  00000-0  12096-3 0  8314
2 28650 097.5629 245.6369 0023360 264.9090 094.9459 14.85708531504551
Epoch (UTC): 01 September 2014 11:11:18
Eccentricity: 0.0023360
inclination: 97.5629°
perigee height: 595 km
apogee height: 627 km
right ascension of ascending node: 245.6369°
argument of perigee: 264.9090°
revolutions per day: 14.85708531
mean anomaly at epoch: 94.9459°
orbit number at epoch: 50455

The dashed part of the orbit path shows where the satellite is in the earth's shadow,  

DLR